Powrót do katalogu

FORMOSAT 3B

AktywnyPogodaLEO
NORAD 29048·PAYLOAD·🇹🇼 Taiwan

Wystrzelony Apr 15, 2006 z Vandenberg Space Force Base

Loading…

Następne Przeloty (najbliższe 24 godziny)

TLE

ŚwieżeSource: Space-Track

Epoka: Sep 14, 2026, 08:07 UTC

1 29048U 06011B   26257.33850037  .00000265  00000-0  11458-3 0  9997
2 29048  71.9668  36.8923 0041091  44.3660 316.0757 14.31444839 69534

Śledź FORMOSAT 3B w czasie rzeczywistym z AllMySat

Download on the App Store